Enterprise, AL

3:03 PM CST on December 02, 2016 (GMT -0600)
Fort Rucker / Ozark

Weather History for KLOR - January, 2013

Change the Weather History Date:

Thursday, January 31, 2013

  Actual Average (KOZR) Record (KOZR)
Temperature  
Mean Temperature 45 °F -  
Max Temperature 55 °F 57 °F 78 °F (2002)
Min Temperature 33 °F 38 °F 24 °F (2014)
Degree Days  
Heating Degree Days 20    
Moisture  
Dew Point 27 °F    
Average Humidity 54    
Maximum Humidity 89    
Minimum Humidity 26    
Precipitation  
Precipitation 0.00 in - - ()
Sea Level Pressure  
Sea Level Pressure 30.18 in    
Wind  
Wind Speed 8 mph (NW)    
Max Wind Speed 16 mph    
Max Gust Speed 26 mph    
Visibility 10 miles    
Events      
Averages and records for this station are not official NWS values.
T = Trace of Precipitation, MM = Missing Value Source: NWS Daily Summary

Daily Weather History Graph

Daily Weather History Graph

Search for Another Location

Airport or City:

Trip Planner

Search our weather history database for the weather conditions in past years. The results will help you decide how hot, cold, wet, or windy it might be!

Date:

Astronomy

Jan. 31, 2013 Rise Set
Actual Time 6:35 AM CST 5:17 PM CST
Civil Twilight 6:10 AM CST 5:42 PM CST
Nautical Twilight 5:41 AM CST 6:11 PM CST
Astronomical Twilight 5:12 AM CST 6:40 PM CST
Moon 9:55 PM CST (1/31) 8:56 AM CST (1/31)
Length of Visible Light 11h 32m
Length of Day
10h 41m
Waning Gibbous, 79% of the Moon is Illuminated
Jan 31
Waning Gibbous
Feb 3
Last Quarter
Feb 10
New
Feb 17
First Quarter
Feb 25
Full

Hourly Weather History & Observations

Time (CST) Temp. Windchill Dew Point Humidity Pressure Visibility Wind Dir Wind Speed Gust Speed Precip Events Conditions
12:53 AM 44.1 °F 37.1 °F 30.9 °F 60% 30.05 in 10.0 mi NW 15.0 mph 20.7 mph N/A   Clear
1:53 AM 42.1 °F 38.4 °F 28.9 °F 60% 30.06 in 10.0 mi NW 5.8 mph - N/A   Clear
2:53 AM 41.0 °F 36.4 °F 28.9 °F 62% 30.09 in 10.0 mi WNW 6.9 mph - N/A   Clear
3:53 AM 39.9 °F 35.8 °F 28.0 °F 63% 30.10 in 10.0 mi WNW 5.8 mph - N/A   Clear
4:53 AM 39.0 °F 32.3 °F 28.0 °F 65% 30.10 in 10.0 mi NNW 10.4 mph - N/A   Clear
5:53 AM 37.9 °F 32.7 °F 27.0 °F 65% 30.11 in 10.0 mi NNW 6.9 mph - N/A   Clear
6:53 AM 37.0 °F - 28.0 °F 70% 30.14 in 10.0 mi Calm Calm - N/A   Clear
7:53 AM 41.0 °F 36.4 °F 30.0 °F 65% 30.17 in 10.0 mi NW 6.9 mph - N/A   Clear
8:53 AM 44.1 °F 37.4 °F 28.0 °F 53% 30.19 in 10.0 mi NNW 13.8 mph 21.9 mph N/A   Clear
9:13 AM 46.4 °F 41.1 °F 26.6 °F 46% 30.20 in 10.0 mi NW 11.5 mph 18.4 mph N/A   Partly Cloudy
9:53 AM 48.0 °F - 26.1 °F 42% 30.22 in 10.0 mi NW 6.9 mph 20.7 mph N/A   Clear
10:53 AM 51.1 °F - 24.1 °F 35% 30.22 in 10.0 mi NNW 12.7 mph 20.7 mph N/A   Clear
11:34 AM 51.8 °F - 21.2 °F 30% 30.22 in 10.0 mi North 16.1 mph 26.5 mph N/A   Partly Cloudy
11:53 AM 54.0 °F - 23.0 °F 30% 30.21 in 10.0 mi NNW 11.5 mph 19.6 mph N/A   Partly Cloudy
12:53 PM 55.0 °F - 21.0 °F 27% 30.19 in 10.0 mi NW 13.8 mph 20.7 mph N/A   Clear
1:53 PM 55.9 °F - 21.0 °F 26% 30.18 in 10.0 mi North 9.2 mph 19.6 mph N/A   Clear
2:53 PM 55.9 °F - 21.0 °F 26% 30.17 in 10.0 mi North 11.5 mph 16.1 mph N/A   Clear
3:53 PM 55.9 °F - 21.9 °F 27% 30.18 in 10.0 mi NNW 10.4 mph - N/A   Clear
4:53 PM 54.0 °F - 23.0 °F 30% 30.19 in 10.0 mi NW 5.8 mph - N/A   Clear
5:53 PM 48.9 °F - 26.1 °F 41% 30.21 in 10.0 mi Calm Calm - N/A   Clear
6:53 PM 42.1 °F - 30.9 °F 65% 30.23 in 10.0 mi Calm Calm - N/A   Clear
7:53 PM 41.0 °F - 33.1 °F 73% 30.25 in 10.0 mi Calm Calm - N/A   Clear
8:53 PM 37.9 °F - 33.1 °F 83% 30.26 in 10.0 mi Calm Calm - N/A   Clear
9:53 PM 36.0 °F - 33.1 °F 89% 30.26 in 10.0 mi Calm Calm - N/A   Clear
10:53 PM 35.1 °F - 32.0 °F 89% 30.27 in 10.0 mi Calm Calm - N/A   Clear
11:53 PM 33.1 °F - 30.0 °F 89% 30.29 in 10.0 mi Calm Calm - N/A   Clear